Location: College Park
(38.9810°N, 76.9370°W)
Time: 05:21:05

Envisat - Pass Details

Date: 15 March 2018
Orbit: 764 x 766 km, 98.2° (Epoch: 22 March)

Event Time Altitude Azimuth Distance (km) Brightness Sun altitude
Rises 21:15:15 0° 188° (S) 3,216 6.1 -23.9°
Reaches altitude 10° 21:17:43 10° 197° (SSW) 2,294 5.4 -24.3°
Maximum altitude 21:22:19 35° 263° (W) 1,223 4.5 -25.2°
Drops below altitude 10° 21:26:57 10° 329° (NNW) 2,308 6.1 -26.0°
Sets 21:29:28 0° 338° (NNW) 3,238 6.8 -26.5°
